Time,TemperatureF,DewpointF,PressureIn,WindDirection,WindDirectionDegrees,WindSpeedMPH,WindSpeedGustMPH,Humidity,HourlyPrecipIn,Conditions,Clouds,dailyrainin,SoftwareType,DateUTC
2013-03-19 00:02:00,47.0,39.0,-100.00,North,7,2.0,3.0,73,-99.99,,,-99.99,,2013-03-19 07:02:00,
2013-03-19 00:12:00,47.0,39.0,-100.00,NNE,23,3.0,5.0,75,-99.99,,,-99.99,,2013-03-19 07:12:00,
2013-03-19 00:21:00,47.0,39.0,-100.00,NE,38,1.0,3.0,74,-99.99,,,-99.99,,2013-03-19 07:21:00,
2013-03-19 00:32:00,46.0,40.0,-100.00,West,270,1.0,2.0,78,-99.99,,,-99.99,,2013-03-19 07:32:00,
2013-03-19 00:42:00,46.0,38.0,-100.00,ENE,61,1.0,3.0,73,-99.99,,,-99.99,,2013-03-19 07:42:00,
2013-03-19 00:52:00,47.0,36.0,-100.00,NW,308,1.0,4.0,66,-99.99,,,-99.99,,2013-03-19 07:52:00,
2013-03-19 01:02:00,49.0,34.0,-100.00,WNW,301,4.0,8.0,56,-99.99,,,-99.99,,2013-03-19 08:02:00,
2013-03-19 01:12:00,47.0,35.0,-100.00,NNW,335,3.0,6.0,63,-99.99,,,-99.99,,2013-03-19 08:12:00,
2013-03-19 01:21:00,46.0,36.0,-100.00,NE,53,0.0,3.0,69,-99.99,,,-99.99,,2013-03-19 08:21:00,
2013-03-19 01:32:00,46.0,36.0,-100.00,NE,53,0.0,3.0,69,-99.99,,,-99.99,,2013-03-19 08:32:00,
2013-03-19 01:42:00,45.0,35.0,-100.00,NNW,348,2.0,4.0,69,-99.99,,,-99.99,,2013-03-19 08:42:00,
2013-03-19 01:52:00,44.0,36.0,-100.00,NNE,12,2.0,3.0,72,-99.99,,,-99.99,,2013-03-19 08:52:00,
2013-03-19 02:02:00,43.0,36.0,-100.00,North,1,3.0,5.0,75,-99.99,,,-99.99,,2013-03-19 09:02:00,
2013-03-19 02:12:00,43.0,35.0,-100.00,NNE,30,2.0,3.0,73,-99.99,,,-99.99,,2013-03-19 09:12:00,
2013-03-19 02:22:00,42.0,35.0,-100.00,North,11,2.0,3.0,75,-99.99,,,-99.99,,2013-03-19 09:22:00,
2013-03-19 02:32:00,42.0,34.0,-100.00,NE,34,1.0,3.0,74,-99.99,,,-99.99,,2013-03-19 09:32:00,
2013-03-19 02:42:00,42.0,35.0,-100.00,NNE,16,1.0,2.0,75,-99.99,,,-99.99,,2013-03-19 09:42:00,
2013-03-19 02:52:00,42.0,35.0,-100.00,NNE,29,1.0,2.0,76,-99.99,,,-99.99,,2013-03-19 09:52:00,
2013-03-19 03:03:00,42.0,35.0,-100.00,North,8,3.0,4.0,75,-99.99,,,-99.99,,2013-03-19 10:03:00,
2013-03-19 03:12:00,42.0,34.0,-100.00,North,11,4.0,5.0,73,-99.99,,,-99.99,,2013-03-19 10:12:00,
2013-03-19 03:22:00,42.0,33.0,-100.00,North,359,3.0,4.0,71,-99.99,,,-99.99,,2013-03-19 10:22:00,
2013-03-19 03:32:00,41.0,34.0,-100.00,NE,35,2.0,3.0,76,-99.99,,,-99.99,,2013-03-19 10:32:00,
2013-03-19 03:42:00,40.0,34.0,-100.00,NNE,14,1.0,2.0,79,-99.99,,,-99.99,,2013-03-19 10:42:00,
2013-03-19 03:52:00,41.0,34.0,-100.00,NE,55,1.0,2.0,76,-99.99,,,-99.99,,2013-03-19 10:52:00,
2013-03-19 04:02:00,40.0,33.0,-100.00,NNE,32,2.0,3.0,77,-99.99,,,-99.99,,2013-03-19 11:02:00,
2013-03-19 04:12:00,40.0,33.0,-100.00,North,5,3.0,4.0,75,-99.99,,,-99.99,,2013-03-19 11:12:00,
2013-03-19 04:22:00,40.0,32.0,-100.00,North,6,3.0,4.0,73,-99.99,,,-99.99,,2013-03-19 11:22:00,
2013-03-19 04:32:00,40.0,33.0,-100.00,NNE,23,2.0,3.0,76,-99.99,,,-99.99,,2013-03-19 11:32:00,
2013-03-19 04:42:00,39.0,32.0,-100.00,East,85,1.0,2.0,77,-99.99,,,-99.99,,2013-03-19 11:42:00,
2013-03-19 04:52:00,40.0,33.0,-100.00,North,349,2.0,4.0,75,-99.99,,,-99.99,,2013-03-19 11:52:00,
2013-03-19 05:02:00,40.0,33.0,-100.00,NNE,31,1.0,3.0,76,-99.99,,,-99.99,,2013-03-19 12:02:00,
2013-03-19 05:12:00,39.0,32.0,-100.00,NE,49,1.0,3.0,77,-99.99,,,-99.99,,2013-03-19 12:12:00,
2013-03-19 05:22:00,40.0,32.0,-100.00,NNW,331,1.0,3.0,74,-99.99,,,-99.99,,2013-03-19 12:22:00,
2013-03-19 05:32:00,40.0,32.0,-100.00,NNE,27,2.0,4.0,72,-99.99,,,-99.99,,2013-03-19 12:32:00,
2013-03-19 05:42:00,40.0,32.0,-100.00,NNE,27,2.0,4.0,72,-99.99,,,-99.99,,2013-03-19 12:42:00,
2013-03-19 05:51:00,41.0,31.0,-100.00,NNE,19,2.0,4.0,66,-99.99,,,-99.99,,2013-03-19 12:51:00,
2013-03-19 06:02:00,41.0,31.0,-100.00,NNE,30,1.0,2.0,66,-99.99,,,-99.99,,2013-03-19 13:02:00,
2013-03-19 06:12:00,40.0,31.0,-100.00,South,188,1.0,2.0,69,-99.99,,,-99.99,,2013-03-19 13:12:00,
2013-03-19 06:22:00,39.0,31.0,-100.00,NE,56,1.0,2.0,72,-99.99,,,-99.99,,2013-03-19 13:22:00,
2013-03-19 06:32:00,39.0,31.0,-100.00,North,7,2.0,4.0,73,-99.99,,,-99.99,,2013-03-19 13:32:00,
2013-03-19 06:42:00,39.0,31.0,-100.00,NNE,19,3.0,4.0,74,-99.99,,,-99.99,,2013-03-19 13:42:00,
2013-03-19 06:52:00,39.0,31.0,-100.00,NNE,18,2.0,4.0,72,-99.99,,,-99.99,,2013-03-19 13:52:00,
2013-03-19 07:02:00,39.0,31.0,-100.00,NNE,18,2.0,4.0,72,-99.99,,,-99.99,,2013-03-19 14:02:00,
2013-03-19 07:12:00,39.0,30.0,-100.00,NNE,19,1.0,2.0,71,-99.99,,,-99.99,,2013-03-19 14:12:00,
2013-03-19 07:22:00,39.0,30.0,-100.00,NNE,12,2.0,3.0,70,-99.99,,,-99.99,,2013-03-19 14:22:00,
2013-03-19 07:32:00,39.0,30.0,-100.00,NNE,13,2.0,3.0,70,-99.99,,,-99.99,,2013-03-19 14:32:00,
2013-03-19 07:42:00,40.0,30.0,-100.00,ENE,57,1.0,2.0,66,-99.99,,,-99.99,,2013-03-19 14:42:00,
2013-03-19 07:52:00,39.0,30.0,-100.00,East,98,0.0,1.0,69,-99.99,,,-99.99,,2013-03-19 14:52:00,
2013-03-19 08:02:00,39.0,30.0,-100.00,ENE,62,0.0,1.0,70,-99.99,,,-99.99,,2013-03-19 15:02:00,
2013-03-19 08:12:00,40.0,31.0,-100.00,NE,56,0.0,1.0,69,-99.99,,,-99.99,,2013-03-19 15:12:00,
2013-03-19 08:22:00,41.0,31.0,-100.00,NNW,347,1.0,1.0,67,-99.99,,,-99.99,,2013-03-19 15:22:00,
2013-03-19 08:33:00,44.0,32.0,-100.00,North,7,1.0,2.0,63,-99.99,,,-99.99,,2013-03-19 15:33:00,
2013-03-19 08:43:00,44.0,32.0,-100.00,North,7,1.0,2.0,63,-99.99,,,-99.99,,2013-03-19 15:43:00,
2013-03-19 08:53:00,46.0,31.0,-100.00,ENE,64,0.0,1.0,56,-99.99,,,-99.99,,2013-03-19 15:53:00,
2013-03-19 09:03:00,47.0,31.0,-100.00,North,-999,0.0,0.0,54,-99.99,,,-99.99,,2013-03-19 16:03:00,
2013-03-19 09:13:00,48.0,34.0,-100.00,SSE,164,1.0,2.0,58,-99.99,,,-99.99,,2013-03-19 16:13:00,
2013-03-19 09:23:00,47.0,34.0,-100.00,South,184,1.0,3.0,60,-99.99,,,-99.99,,2013-03-19 16:23:00,
2013-03-19 09:33:00,49.0,37.0,-100.00,SSW,198,0.0,2.0,64,-99.99,,,-99.99,,2013-03-19 16:33:00,
2013-03-19 09:43:00,52.0,36.0,-100.00,South,181,1.0,3.0,55,-99.99,,,-99.99,,2013-03-19 16:43:00,
2013-03-19 09:53:00,53.0,35.0,-100.00,South,173,2.0,4.0,50,-99.99,,,-99.99,,2013-03-19 16:53:00,
2013-03-19 10:02:00,55.0,35.0,-100.00,South,180,1.0,3.0,47,-99.99,,,-99.99,,2013-03-19 17:02:00,
2013-03-19 10:13:00,57.0,32.0,-100.00,South,180,1.0,3.0,38,-99.99,,,-99.99,,2013-03-19 17:13:00,
2013-03-19 10:23:00,58.0,33.0,-100.00,South,182,1.0,4.0,39,-99.99,,,-99.99,,2013-03-19 17:23:00,
2013-03-19 10:34:00,59.0,34.0,-100.00,South,180,2.0,5.0,39,-99.99,,,-99.99,,2013-03-19 17:34:00,
2013-03-19 10:43:00,60.0,34.0,-100.00,South,174,3.0,6.0,37,-99.99,,,-99.99,,2013-03-19 17:43:00,
2013-03-19 10:52:00,61.0,33.0,-100.00,South,184,4.0,7.0,35,-99.99,,,-99.99,,2013-03-19 17:52:00,
2013-03-19 11:02:00,64.0,31.0,-100.00,NW,304,7.0,15.0,29,-99.99,,,-99.99,,2013-03-19 18:02:00,
2013-03-19 11:13:00,65.0,31.0,-100.00,WNW,302,10.0,17.0,28,-99.99,,,-99.99,,2013-03-19 18:13:00,
2013-03-19 11:23:00,66.0,32.0,-100.00,WNW,301,7.0,15.0,28,-99.99,,,-99.99,,2013-03-19 18:23:00,
2013-03-19 11:33:00,67.0,32.0,-100.00,North,354,9.0,17.0,27,-99.99,,,-99.99,,2013-03-19 18:33:00,
2013-03-19 11:42:00,67.0,31.0,-100.00,North,353,10.0,18.0,26,-99.99,,,-99.99,,2013-03-19 18:42:00,
2013-03-19 11:52:00,67.0,31.0,-100.00,North,2,11.0,21.0,26,-99.99,,,-99.99,,2013-03-19 18:52:00,
2013-03-19 12:02:00,67.0,30.0,-100.00,NNW,347,13.0,23.0,25,-99.99,,,-99.99,,2013-03-19 19:02:00,
2013-03-19 12:12:00,67.0,30.0,-100.00,NNW,344,13.0,22.0,25,-99.99,,,-99.99,,2013-03-19 19:12:00,
2013-03-19 12:22:00,67.0,29.0,-100.00,NW,323,12.0,19.0,24,-99.99,,,-99.99,,2013-03-19 19:22:00,
2013-03-19 12:32:00,67.0,30.0,-100.00,NW,314,11.0,24.0,25,-99.99,,,-99.99,,2013-03-19 19:32:00,
2013-03-19 12:42:00,68.0,30.0,-100.00,NNW,328,9.0,17.0,24,-99.99,,,-99.99,,2013-03-19 19:42:00,
2013-03-19 12:52:00,68.0,30.0,-100.00,NW,314,11.0,21.0,24,-99.99,,,-99.99,,2013-03-19 19:52:00,
2013-03-19 13:02:00,68.0,30.0,-100.00,NW,314,11.0,21.0,24,-99.99,,,-99.99,,2013-03-19 20:02:00,
2013-03-19 13:11:00,68.0,29.0,-100.00,NW,319,12.0,21.0,23,-99.99,,,-99.99,,2013-03-19 20:11:00,
2013-03-19 13:22:00,68.0,30.0,-100.00,NW,321,13.0,24.0,24,-99.99,,,-99.99,,2013-03-19 20:22:00,
2013-03-19 13:32:00,68.0,30.0,-100.00,NNW,327,13.0,24.0,24,-99.99,,,-99.99,,2013-03-19 20:32:00,
2013-03-19 13:42:00,68.0,30.0,-100.00,NW,324,12.0,24.0,24,-99.99,,,-99.99,,2013-03-19 20:42:00,
2013-03-19 13:52:00,69.0,31.0,-100.00,NNW,341,14.0,24.0,24,-99.99,,,-99.99,,2013-03-19 20:52:00,
2013-03-19 14:01:00,69.0,30.0,-100.00,NNW,342,13.0,22.0,23,-99.99,,,-99.99,,2013-03-19 21:01:00,
2013-03-19 14:11:00,69.0,31.0,-100.00,NW,326,14.0,27.0,24,-99.99,,,-99.99,,2013-03-19 21:11:00,
2013-03-19 14:22:00,68.0,31.0,-100.00,NW,314,13.0,24.0,25,-99.99,,,-99.99,,2013-03-19 21:22:00,
2013-03-19 14:33:00,68.0,31.0,-100.00,NW,310,14.0,24.0,25,-99.99,,,-99.99,,2013-03-19 21:33:00,
2013-03-19 14:42:00,68.0,31.0,-100.00,NW,325,12.0,26.0,25,-99.99,,,-99.99,,2013-03-19 21:42:00,
2013-03-19 14:52:00,68.0,31.0,-100.00,NNW,328,9.0,18.0,25,-99.99,,,-99.99,,2013-03-19 21:52:00,
2013-03-19 15:02:00,69.0,33.0,-100.00,North,358,9.0,23.0,26,-99.99,,,-99.99,,2013-03-19 22:02:00,
2013-03-19 15:12:00,68.0,33.0,-100.00,WNW,300,7.0,18.0,27,-99.99,,,-99.99,,2013-03-19 22:12:00,
2013-03-19 15:22:00,69.0,34.0,-100.00,NW,309,7.0,19.0,27,-99.99,,,-99.99,,2013-03-19 22:22:00,
2013-03-19 15:32:00,68.0,34.0,-100.00,NNW,333,10.0,19.0,28,-99.99,,,-99.99,,2013-03-19 22:32:00,
2013-03-19 15:43:00,68.0,35.0,-100.00,WNW,302,7.0,16.0,30,-99.99,,,-99.99,,2013-03-19 22:43:00,
2013-03-19 15:52:00,68.0,37.0,-100.00,WNW,292,11.0,19.0,32,-99.99,,,-99.99,,2013-03-19 22:52:00,
2013-03-19 16:02:00,67.0,36.0,-100.00,West,280,10.0,17.0,32,-99.99,,,-99.99,,2013-03-19 23:02:00,
2013-03-19 16:12:00,67.0,36.0,-100.00,WNW,289,8.0,15.0,32,-99.99,,,-99.99,,2013-03-19 23:12:00,
2013-03-19 16:22:00,67.0,35.0,-100.00,WNW,291,9.0,16.0,31,-99.99,,,-99.99,,2013-03-19 23:22:00,
2013-03-19 16:32:00,67.0,35.0,-100.00,WNW,298,9.0,22.0,31,-99.99,,,-99.99,,2013-03-19 23:32:00,
2013-03-19 16:42:00,67.0,35.0,-100.00,WNW,298,9.0,22.0,31,-99.99,,,-99.99,,2013-03-19 23:42:00,
2013-03-19 16:52:00,67.0,35.0,-100.00,WNW,297,6.0,16.0,31,-99.99,,,-99.99,,2013-03-19 23:52:00,
2013-03-19 17:02:00,67.0,36.0,-100.00,WNW,303,6.0,15.0,32,-99.99,,,-99.99,,2013-03-20 00:02:00,
2013-03-19 17:12:00,66.0,35.0,-100.00,WNW,298,9.0,17.0,32,-99.99,,,-99.99,,2013-03-20 00:12:00,
2013-03-19 17:22:00,66.0,35.0,-100.00,WNW,302,9.0,16.0,32,-99.99,,,-99.99,,2013-03-20 00:22:00,
2013-03-19 17:32:00,66.0,36.0,-100.00,WNW,297,10.0,17.0,33,-99.99,,,-99.99,,2013-03-20 00:32:00,
2013-03-19 17:42:00,65.0,36.0,-100.00,NW,323,10.0,16.0,34,-99.99,,,-99.99,,2013-03-20 00:42:00,
2013-03-19 17:52:00,65.0,36.0,-100.00,NNW,342,10.0,17.0,34,-99.99,,,-99.99,,2013-03-20 00:52:00,
2013-03-19 18:02:00,65.0,36.0,-100.00,North,351,10.0,16.0,34,-99.99,,,-99.99,,2013-03-20 01:02:00,
2013-03-19 18:12:00,65.0,37.0,-100.00,North,358,11.0,17.0,36,-99.99,,,-99.99,,2013-03-20 01:12:00,
2013-03-19 18:22:00,64.0,37.0,-100.00,North,357,9.0,15.0,37,-99.99,,,-99.99,,2013-03-20 01:22:00,
2013-03-19 18:32:00,64.0,37.0,-100.00,North,5,10.0,16.0,37,-99.99,,,-99.99,,2013-03-20 01:32:00,
2013-03-19 18:42:00,63.0,38.0,-100.00,North,0,10.0,16.0,40,-99.99,,,-99.99,,2013-03-20 01:42:00,
2013-03-19 18:52:00,62.0,36.0,-100.00,North,360,12.0,18.0,38,-99.99,,,-99.99,,2013-03-20 01:52:00,
2013-03-19 19:02:00,62.0,38.0,-100.00,North,353,11.0,18.0,41,-99.99,,,-99.99,,2013-03-20 02:02:00,
2013-03-19 19:11:00,61.0,39.0,-100.00,North,351,12.0,18.0,44,-99.99,,,-99.99,,2013-03-20 02:11:00,
2013-03-19 19:21:00,61.0,41.0,-100.00,NNW,347,11.0,20.0,47,-99.99,,,-99.99,,2013-03-20 02:21:00,
2013-03-19 19:32:00,60.0,42.0,-100.00,NNW,338,9.0,13.0,52,-99.99,,,-99.99,,2013-03-20 02:32:00,
2013-03-19 19:42:00,59.0,42.0,-100.00,NNW,327,9.0,16.0,54,-99.99,,,-99.99,,2013-03-20 02:42:00,
2013-03-19 19:52:00,59.0,43.0,-100.00,NNW,333,8.0,13.0,56,-99.99,,,-99.99,,2013-03-20 02:52:00,
2013-03-19 20:01:00,59.0,43.0,-100.00,NNW,341,7.0,13.0,56,-99.99,,,-99.99,,2013-03-20 03:01:00,
2013-03-19 20:12:00,58.0,44.0,-100.00,NNW,339,7.0,13.0,60,-99.99,,,-99.99,,2013-03-20 03:12:00,
2013-03-19 20:22:00,57.0,42.0,-100.00,NNW,334,5.0,11.0,57,-99.99,,,-99.99,,2013-03-20 03:22:00,
2013-03-19 20:33:00,57.0,41.0,-100.00,North,355,10.0,14.0,55,-99.99,,,-99.99,,2013-03-20 03:33:00,
2013-03-19 20:42:00,57.0,40.0,-100.00,North,359,11.0,15.0,53,-99.99,,,-99.99,,2013-03-20 03:42:00,
2013-03-19 20:52:00,57.0,39.0,-100.00,North,6,12.0,15.0,50,-99.99,,,-99.99,,2013-03-20 03:52:00,
2013-03-19 21:02:00,57.0,38.0,-100.00,North,7,10.0,13.0,48,-99.99,,,-99.99,,2013-03-20 04:02:00,
2013-03-19 21:12:00,57.0,39.0,-100.00,NNW,345,7.0,11.0,50,-99.99,,,-99.99,,2013-03-20 04:12:00,
2013-03-19 21:22:00,56.0,38.0,-100.00,NNW,340,5.0,8.0,51,-99.99,,,-99.99,,2013-03-20 04:22:00,
2013-03-19 21:32:00,55.0,37.0,-100.00,NW,319,3.0,5.0,51,-99.99,,,-99.99,,2013-03-20 04:32:00,
2013-03-19 21:43:00,54.0,37.0,-100.00,SW,221,2.0,2.0,53,-99.99,,,-99.99,,2013-03-20 04:43:00,
2013-03-19 21:52:00,53.0,38.0,-100.00,SSE,167,0.0,1.0,56,-99.99,,,-99.99,,2013-03-20 04:52:00,
2013-03-19 22:02:00,53.0,37.0,-100.00,NE,47,1.0,3.0,55,-99.99,,,-99.99,,2013-03-20 05:02:00,
2013-03-19 22:12:00,52.0,37.0,-100.00,NE,39,2.0,4.0,56,-99.99,,,-99.99,,2013-03-20 05:12:00,
2013-03-19 22:22:00,53.0,36.0,-100.00,ENE,63,2.0,3.0,53,-99.99,,,-99.99,,2013-03-20 05:22:00,
2013-03-19 22:32:00,52.0,35.0,-100.00,SSE,165,1.0,4.0,53,-99.99,,,-99.99,,2013-03-20 05:32:00,
2013-03-19 22:42:00,51.0,35.0,-100.00,South,171,2.0,5.0,55,-99.99,,,-99.99,,2013-03-20 05:42:00,
2013-03-19 22:52:00,51.0,34.0,-100.00,SW,216,1.0,4.0,52,-99.99,,,-99.99,,2013-03-20 05:52:00,
2013-03-19 23:02:00,50.0,34.0,-100.00,SSE,163,1.0,5.0,54,-99.99,,,-99.99,,2013-03-20 06:02:00,
2013-03-19 23:12:00,51.0,34.0,-100.00,SSE,148,2.0,4.0,51,-99.99,,,-99.99,,2013-03-20 06:12:00,
2013-03-19 23:22:00,52.0,34.0,-100.00,SW,226,3.0,4.0,51,-99.99,,,-99.99,,2013-03-20 06:22:00,
2013-03-19 23:32:00,50.0,34.0,-100.00,SSE,166,2.0,5.0,54,-99.99,,,-99.99,,2013-03-20 06:32:00,
2013-03-19 23:42:00,50.0,34.0,-100.00,SW,227,1.0,3.0,54,-99.99,,,-99.99,,2013-03-20 06:42:00,
2013-03-19 23:52:00,50.0,35.0,-100.00,WSW,249,2.0,5.0,56,-99.99,,,-99.99,,2013-03-20 06:52:00,